Regional Weather Roundup
Issued by NWS

Home | Current Version | Previous Version | Graphics & Text | Print | Product List | Glossary On
Versions: 1 2 3 4 5 6 7 8 9 10 11 12 13 14 15 16 17 18 19 20 21 22 23 24 25 26 27 28 29 30 31 32 33 34 35 36 37 38 39 40 41 42 43 44 45 46 47 48 49 50
000
ASUS43 KBIS 222010
RWRND

NORTH DAKOTA REGIONAL WEATHER ROUNDUP
NATIONAL WEATHER SERVICE BISMARCK ND
200 PM CST WED NOV 22 2017

NOTE: "FAIR" INDICATES FEW OR NO CLOUDS BELOW 12,000 FEET WITH NO
SIGNIFICANT WEATHER AND/OR OBSTRUCTIONS TO VISIBILITY.


NDZ001>003-009>011-017-222100-
NORTHWEST NORTH DAKOTA

CITY           SKY/WX    TMP DP  RH WIND       PRES   REMARKS
WILLISTON      SUNNY     51  32  48 NW12      29.88R
MINOT          SUNNY     41  23  48 NW8       29.81R
MINOT AFB      SUNNY     39  24  54 N12       29.80R
$$

NDZ018>021-031>035-040>046-222100-
SOUTHWEST NORTH DAKOTA

CITY           SKY/WX    TMP DP  RH WIND       PRES   REMARKS
BISMARCK       CLOUDY    49  26  41 S5        29.82F
DICKINSON      SUNNY     62  38  40 W28G36    29.85R
GARRISON         N/A     49  35  58 NW15G24   29.81R
HETTINGER ARPT SUNNY     66  37  34 NW35G46   29.89S
$$

NDZ004>008-012>016-024-026-027-054-222100-
NORTHEAST NORTH DAKOTA

CITY           SKY/WX    TMP DP  RH WIND       PRES   REMARKS
GRAND FORKS    CLOUDY    27  18  69 S15       29.91F WCI  15
GRND FRKS AFB  CLOUDY    26  16  65 S13       29.90F WCI  15
DEVILS LAKE    CLOUDY    28  19  69 SE7       29.83F
$$

NDZ022-023-025-028>030-036>039-047>053-222100-
SOUTHEAST NORTH DAKOTA

CITY           SKY/WX    TMP DP  RH WIND       PRES   REMARKS
FARGO          CLOUDY    29  14  53 S18G24    29.93F WCI  16
JAMESTOWN      SUNNY     43  23  45 SW13      29.81F
$$





USA.gov is the U.S. government's official web portal to all federal, state and local government web resources and services.